owner,sensor,date,latitude,longitude,sea_surface_height_above_sea_level,qcFlag 
COMPS,ioos:station:USF.COMPS:BGC:1,2011-04-01T00:00:00Z,26.4040,-81.8810,-0.136,1111122 
COMPS,ioos:station:USF.COMPS:BGC:1,2011-04-01T00:06:00Z,26.4040,-81.8810,-0.149,1111122 
COMPS,ioos:station:USF.COMPS:BGC:1,2011-04-01T00:12:00Z,26.4040,-81.8810,-0.13,1111122 
COMPS,ioos:station:USF.COMPS:BGC:1,2011-04-01T00:18:00Z,26.4040,-81.8810,-0.097,1111122 
COMPS,ioos:station:USF.COMPS:BGC:1,2011-04-01T00:24:00Z,26.4040,-81.8810,-0.108,1111122 
COMPS,ioos:station:USF.COMPS:BGC:1,2011-04-01T00:30:00Z,26.4040,-81.8810,-0.091,1111122 
COMPS,ioos:station:USF.COMPS:BGC:1,2011-04-01T00:36:00Z,26.4040,-81.8810,-0.05,1111122 
COMPS,ioos:station:USF.COMPS:BGC:1,2011-04-01T00:42:00Z,26.4040,-81.8810,-0.036,1111122 
COMPS,ioos:station:USF.COMPS:BGC:1,2011-04-01T00:48:00Z,26.4040,-81.8810,-0.025,1111122 
COMPS,ioos:station:USF.COMPS:BGC:1,2011-04-01T00:54:00Z,26.4040,-81.8810,-0.036,1111122 
COMPS,ioos:station:USF.COMPS:BGC:1,2011-04-01T01:00:00Z,26.4040,-81.8810,-0.02,1111122 
COMPS,ioos:station:USF.COMPS:BGC:1,2011-04-01T01:06:00Z,26.4040,-81.8810,-0.014,1111122 
COMPS,ioos:station:USF.COMPS:BGC:1,2011-04-01T01:12:00Z,26.4040,-81.8810,-0.015,1111122 
COMPS,ioos:station:USF.COMPS:BGC:1,2011-04-01T01:18:00Z,26.4040,-81.8810,0.005,1111122 
COMPS,ioos:station:USF.COMPS:BGC:1,2011-04-01T01:24:00Z,26.4040,-81.8810,0.053,1111122 
COMPS,ioos:station:USF.COMPS:BGC:1,2011-04-01T01:30:00Z,26.4040,-81.8810,0.062,1111122 
COMPS,ioos:station:USF.COMPS:BGC:1,2011-04-01T01:36:00Z,26.4040,-81.8810,0.063,1111122 
COMPS,ioos:station:USF.COMPS:BGC:1,2011-04-01T01:42:00Z,26.4040,-81.8810,0.1,1111122 
COMPS,ioos:station:USF.COMPS:BGC:1,2011-04-01T01:48:00Z,26.4040,-81.8810,0.028,1111122 
COMPS,ioos:station:USF.COMPS:BGC:1,2011-04-01T01:54:00Z,26.4040,-81.8810,0.03,1111122 
COMPS,ioos:station:USF.COMPS:BGC:1,2011-04-01T02:00:00Z,26.4040,-81.8810,0.071,1111122 
COMPS,ioos:station:USF.COMPS:BGC:1,2011-04-01T02:06:00Z,26.4040,-81.8810,0.125,1111122 
COMPS,ioos:station:USF.COMPS:BGC:1,2011-04-01T02:12:00Z,26.4040,-81.8810,0.155,1111122 
COMPS,ioos:station:USF.COMPS:BGC:1,2011-04-01T02:18:00Z,26.4040,-81.8810,0.139,1111122 
COMPS,ioos:station:USF.COMPS:BGC:1,2011-04-01T02:24:00Z,26.4040,-81.8810,0.124,1111122 
COMPS,ioos:station:USF.COMPS:BGC:1,2011-04-01T02:30:00Z,26.4040,-81.8810,0.077,1111122 
COMPS,ioos:station:USF.COMPS:BGC:1,2011-04-01T02:36:00Z,26.4040,-81.8810,0.162,1111122 
COMPS,ioos:station:USF.COMPS:BGC:1,2011-04-01T02:42:00Z,26.4040,-81.8810,0.141,1111122 
COMPS,ioos:station:USF.COMPS:BGC:1,2011-04-01T02:48:00Z,26.4040,-81.8810,0.172,1111122 
COMPS,ioos:station:USF.COMPS:BGC:1,2011-04-01T02:54:00Z,26.4040,-81.8810,0.223,1111122 
COMPS,ioos:station:USF.COMPS:BGC:1,2011-04-01T03:00:00Z,26.4040,-81.8810,0.237,1111122 
COMPS,ioos:station:USF.COMPS:BGC:1,2011-04-01T03:06:00Z,26.4040,-81.8810,0.187,1111122 
COMPS,ioos:station:USF.COMPS:BGC:1,2011-04-01T03:12:00Z,26.4040,-81.8810,0.246,1111122 
COMPS,ioos:station:USF.COMPS:BGC:1,2011-04-01T03:18:00Z,26.4040,-81.8810,0.201,1111122 
COMPS,ioos:station:USF.COMPS:BGC:1,2011-04-01T03:24:00Z,26.4040,-81.8810,0.2,1111122 
COMPS,ioos:station:USF.COMPS:BGC:1,2011-04-01T03:30:00Z,26.4040,-81.8810,0.248,1111122 
COMPS,ioos:station:USF.COMPS:BGC:1,2011-04-01T03:36:00Z,26.4040,-81.8810,0.227,1111122 
COMPS,ioos:station:USF.COMPS:BGC:1,2011-04-01T03:42:00Z,26.4040,-81.8810,0.257,1111122 
COMPS,ioos:station:USF.COMPS:BGC:1,2011-04-01T03:48:00Z,26.4040,-81.8810,0.256,1111122 
COMPS,ioos:station:USF.COMPS:BGC:1,2011-04-01T03:54:00Z,26.4040,-81.8810,0.265,1111122 
COMPS,ioos:station:USF.COMPS:BGC:1,2011-04-01T04:00:00Z,26.4040,-81.8810,0.268,1111122 
COMPS,ioos:station:USF.COMPS:BGC:1,2011-04-01T04:06:00Z,26.4040,-81.8810,0.259,1111122 
COMPS,ioos:station:USF.COMPS:BGC:1,2011-04-01T04:12:00Z,26.4040,-81.8810,0.298,1111122 
COMPS,ioos:station:USF.COMPS:BGC:1,2011-04-01T04:18:00Z,26.4040,-81.8810,0.285,1111122 
COMPS,ioos:station:USF.COMPS:BGC:1,2011-04-01T04:24:00Z,26.4040,-81.8810,0.267,1111122 
COMPS,ioos:station:USF.COMPS:BGC:1,2011-04-01T04:30:00Z,26.4040,-81.8810,0.281,1111122 
COMPS,ioos:station:USF.COMPS:BGC:1,2011-04-01T04:36:00Z,26.4040,-81.8810,0.282,1111122 
COMPS,ioos:station:USF.COMPS:BGC:1,2011-04-01T04:42:00Z,26.4040,-81.8810,0.222,1111122 
COMPS,ioos:station:USF.COMPS:BGC:1,2011-04-01T04:48:00Z,26.4040,-81.8810,0.235,1111122 
COMPS,ioos:station:USF.COMPS:BGC:1,2011-04-01T04:54:00Z,26.4040,-81.8810,0.245,1111122 
COMPS,ioos:station:USF.COMPS:BGC:1,2011-04-01T05:00:00Z,26.4040,-81.8810,0.25,1111122 
COMPS,ioos:station:USF.COMPS:BGC:1,2011-04-01T05:06:00Z,26.4040,-81.8810,0.228,1111122 
COMPS,ioos:station:USF.COMPS:BGC:1,2011-04-01T05:12:00Z,26.4040,-81.8810,0.211,1111122 
COMPS,ioos:station:USF.COMPS:BGC:1,2011-04-01T05:18:00Z,26.4040,-81.8810,0.206,1111122 
COMPS,ioos:station:USF.COMPS:BGC:1,2011-04-01T05:24:00Z,26.4040,-81.8810,0.197,1111122 
COMPS,ioos:station:USF.COMPS:BGC:1,2011-04-01T05:30:00Z,26.4040,-81.8810,0.172,1111122 
COMPS,ioos:station:USF.COMPS:BGC:1,2011-04-01T05:36:00Z,26.4040,-81.8810,0.179,1111122 
COMPS,ioos:station:USF.COMPS:BGC:1,2011-04-01T05:42:00Z,26.4040,-81.8810,0.145,1111122 
COMPS,ioos:station:USF.COMPS:BGC:1,2011-04-01T05:48:00Z,26.4040,-81.8810,0.145,1111122 
COMPS,ioos:station:USF.COMPS:BGC:1,2011-04-01T05:54:00Z,26.4040,-81.8810,0.161,1111122 
COMPS,ioos:station:USF.COMPS:BGC:1,2011-04-01T06:00:00Z,26.4040,-81.8810,0.111,1111122 
COMPS,ioos:station:USF.COMPS:BGC:1,2011-04-01T06:06:00Z,26.4040,-81.8810,0.104,1111122 
COMPS,ioos:station:USF.COMPS:BGC:1,2011-04-01T06:12:00Z,26.4040,-81.8810,0.121,1111122 
COMPS,ioos:station:USF.COMPS:BGC:1,2011-04-01T06:18:00Z,26.4040,-81.8810,0.096,1111122 
COMPS,ioos:station:USF.COMPS:BGC:1,2011-04-01T06:24:00Z,26.4040,-81.8810,0.072,1111122 
COMPS,ioos:station:USF.COMPS:BGC:1,2011-04-01T06:30:00Z,26.4040,-81.8810,0.077,1111122 
COMPS,ioos:station:USF.COMPS:BGC:1,2011-04-01T06:36:00Z,26.4040,-81.8810,0.041,1111122 
COMPS,ioos:station:USF.COMPS:BGC:1,2011-04-01T06:42:00Z,26.4040,-81.8810,0.041,1111122 
COMPS,ioos:station:USF.COMPS:BGC:1,2011-04-01T06:48:00Z,26.4040,-81.8810,0.035,1111122 
COMPS,ioos:station:USF.COMPS:BGC:1,2011-04-01T06:54:00Z,26.4040,-81.8810,0.016,1111122 
COMPS,ioos:station:USF.COMPS:BGC:1,2011-04-01T07:00:00Z,26.4040,-81.8810,-0.001,1111122 
COMPS,ioos:station:USF.COMPS:BGC:1,2011-04-01T07:06:00Z,26.4040,-81.8810,0.031,1111122 
COMPS,ioos:station:USF.COMPS:BGC:1,2011-04-01T07:12:00Z,26.4040,-81.8810,0.01,1111122 
COMPS,ioos:station:USF.COMPS:BGC:1,2011-04-01T07:18:00Z,26.4040,-81.8810,-0.005,1111122 
COMPS,ioos:station:USF.COMPS:BGC:1,2011-04-01T07:24:00Z,26.4040,-81.8810,-0.039,1111122 
COMPS,ioos:station:USF.COMPS:BGC:1,2011-04-01T07:30:00Z,26.4040,-81.8810,-0.038,1111122 
COMPS,ioos:station:USF.COMPS:BGC:1,2011-04-01T07:36:00Z,26.4040,-81.8810,-0.042,1111122 
COMPS,ioos:station:USF.COMPS:BGC:1,2011-04-01T07:42:00Z,26.4040,-81.8810,-0.051,1111122 
COMPS,ioos:station:USF.COMPS:BGC:1,2011-04-01T07:48:00Z,26.4040,-81.8810,-0.034,1111122 
COMPS,ioos:station:USF.COMPS:BGC:1,2011-04-01T07:54:00Z,26.4040,-81.8810,-0.092,1111122 
COMPS,ioos:station:USF.COMPS:BGC:1,2011-04-01T08:00:00Z,26.4040,-81.8810,-0.082,1111122 
COMPS,ioos:station:USF.COMPS:BGC:1,2011-04-01T08:06:00Z,26.4040,-81.8810,-0.085,1111122 
COMPS,ioos:station:USF.COMPS:BGC:1,2011-04-01T08:12:00Z,26.4040,-81.8810,-0.092,1111122 
COMPS,ioos:station:USF.COMPS:BGC:1,2011-04-01T08:18:00Z,26.4040,-81.8810,-0.112,1111122 
COMPS,ioos:station:USF.COMPS:BGC:1,2011-04-01T08:24:00Z,26.4040,-81.8810,-0.122,1111122 
COMPS,ioos:station:USF.COMPS:BGC:1,2011-04-01T08:30:00Z,26.4040,-81.8810,-0.147,1111122 
COMPS,ioos:station:USF.COMPS:BGC:1,2011-04-01T08:36:00Z,26.4040,-81.8810,-0.166,1111122 
COMPS,ioos:station:USF.COMPS:BGC:1,2011-04-01T08:42:00Z,26.4040,-81.8810,-0.152,1111122 
COMPS,ioos:station:USF.COMPS:BGC:1,2011-04-01T08:48:00Z,26.4040,-81.8810,-0.145,1111122 
COMPS,ioos:station:USF.COMPS:BGC:1,2011-04-01T08:54:00Z,26.4040,-81.8810,-0.169,1111122 
COMPS,ioos:station:USF.COMPS:BGC:1,2011-04-01T09:00:00Z,26.4040,-81.8810,-0.192,1111122 
COMPS,ioos:station:USF.COMPS:BGC:1,2011-04-01T09:06:00Z,26.4040,-81.8810,-0.189,1111122 
COMPS,ioos:station:USF.COMPS:BGC:1,2011-04-01T09:12:00Z,26.4040,-81.8810,-0.215,1111122 
COMPS,ioos:station:USF.COMPS:BGC:1,2011-04-01T09:18:00Z,26.4040,-81.8810,-0.223,1111122 
COMPS,ioos:station:USF.COMPS:BGC:1,2011-04-01T09:24:00Z,26.4040,-81.8810,-0.226,1111122 
COMPS,ioos:station:USF.COMPS:BGC:1,2011-04-01T09:30:00Z,26.4040,-81.8810,-0.235,1111122 
COMPS,ioos:station:USF.COMPS:BGC:1,2011-04-01T09:36:00Z,26.4040,-81.8810,-0.24,1111122 
COMPS,ioos:station:USF.COMPS:BGC:1,2011-04-01T09:42:00Z,26.4040,-81.8810,-0.222,1111122 
COMPS,ioos:station:USF.COMPS:BGC:1,2011-04-01T09:48:00Z,26.4040,-81.8810,-0.244,1111122 
COMPS,ioos:station:USF.COMPS:BGC:1,2011-04-01T09:54:00Z,26.4040,-81.8810,-0.253,1111122 
COMPS,ioos:station:USF.COMPS:BGC:1,2011-04-01T10:00:00Z,26.4040,-81.8810,-0.258,1111122 
COMPS,ioos:station:USF.COMPS:BGC:1,2011-04-01T10:06:00Z,26.4040,-81.8810,-0.27,1111122 
COMPS,ioos:station:USF.COMPS:BGC:1,2011-04-01T10:12:00Z,26.4040,-81.8810,-0.291,1111122 
COMPS,ioos:station:USF.COMPS:BGC:1,2011-04-01T10:18:00Z,26.4040,-81.8810,-0.304,1111122 
COMPS,ioos:station:USF.COMPS:BGC:1,2011-04-01T10:24:00Z,26.4040,-81.8810,-0.283,1111122 
COMPS,ioos:station:USF.COMPS:BGC:1,2011-04-01T10:30:00Z,26.4040,-81.8810,-0.275,1111122 
COMPS,ioos:station:USF.COMPS:BGC:1,2011-04-01T10:36:00Z,26.4040,-81.8810,-0.297,1111122 
COMPS,ioos:station:USF.COMPS:BGC:1,2011-04-01T10:42:00Z,26.4040,-81.8810,-0.3,1111122 
COMPS,ioos:station:USF.COMPS:BGC:1,2011-04-01T10:48:00Z,26.4040,-81.8810,-0.3,1111122 
COMPS,ioos:station:USF.COMPS:BGC:1,2011-04-01T10:54:00Z,26.4040,-81.8810,-0.288,1111122 
COMPS,ioos:station:USF.COMPS:BGC:1,2011-04-01T11:00:00Z,26.4040,-81.8810,-0.279,1111122 
COMPS,ioos:station:USF.COMPS:BGC:1,2011-04-01T11:06:00Z,26.4040,-81.8810,-0.286,1111122 
COMPS,ioos:station:USF.COMPS:BGC:1,2011-04-01T11:12:00Z,26.4040,-81.8810,-0.299,1111122 
COMPS,ioos:station:USF.COMPS:BGC:1,2011-04-01T11:18:00Z,26.4040,-81.8810,-0.307,1111122 
COMPS,ioos:station:USF.COMPS:BGC:1,2011-04-01T11:24:00Z,26.4040,-81.8810,-0.279,1111122 
COMPS,ioos:station:USF.COMPS:BGC:1,2011-04-01T11:30:00Z,26.4040,-81.8810,-0.302,1111122 
COMPS,ioos:station:USF.COMPS:BGC:1,2011-04-01T11:36:00Z,26.4040,-81.8810,-0.281,1111122 
COMPS,ioos:station:USF.COMPS:BGC:1,2011-04-01T11:42:00Z,26.4040,-81.8810,-0.281,1111122 
COMPS,ioos:station:USF.COMPS:BGC:1,2011-04-01T11:48:00Z,26.4040,-81.8810,-0.274,1111122 
COMPS,ioos:station:USF.COMPS:BGC:1,2011-04-01T11:54:00Z,26.4040,-81.8810,-0.253,1111122 
COMPS,ioos:station:USF.COMPS:BGC:1,2011-04-01T12:00:00Z,26.4040,-81.8810,-0.253,1111122 
COMPS,ioos:station:USF.COMPS:BGC:1,2011-04-01T12:06:00Z,26.4040,-81.8810,-0.247,1111122 
COMPS,ioos:station:USF.COMPS:BGC:1,2011-04-01T12:12:00Z,26.4040,-81.8810,-0.238,1111122 
COMPS,ioos:station:USF.COMPS:BGC:1,2011-04-01T12:18:00Z,26.4040,-81.8810,-0.209,1111122 
COMPS,ioos:station:USF.COMPS:BGC:1,2011-04-01T12:24:00Z,26.4040,-81.8810,-0.224,1111122 
COMPS,ioos:station:USF.COMPS:BGC:1,2011-04-01T12:30:00Z,26.4040,-81.8810,-0.221,1111122 
COMPS,ioos:station:USF.COMPS:BGC:1,2011-04-01T12:36:00Z,26.4040,-81.8810,-0.185,1111122 
COMPS,ioos:station:USF.COMPS:BGC:1,2011-04-01T12:42:00Z,26.4040,-81.8810,-0.194,1111122 
COMPS,ioos:station:USF.COMPS:BGC:1,2011-04-01T12:48:00Z,26.4040,-81.8810,-0.181,1111122 
COMPS,ioos:station:USF.COMPS:BGC:1,2011-04-01T12:54:00Z,26.4040,-81.8810,-0.158,1111122 
COMPS,ioos:station:USF.COMPS:BGC:1,2011-04-01T13:00:00Z,26.4040,-81.8810,-0.152,1111122 
COMPS,ioos:station:USF.COMPS:BGC:1,2011-04-01T13:06:00Z,26.4040,-81.8810,-0.145,1111122 
COMPS,ioos:station:USF.COMPS:BGC:1,2011-04-01T13:12:00Z,26.4040,-81.8810,-0.129,1111122 
COMPS,ioos:station:USF.COMPS:BGC:1,2011-04-01T13:18:00Z,26.4040,-81.8810,-0.118,1111122 
COMPS,ioos:station:USF.COMPS:BGC:1,2011-04-01T13:24:00Z,26.4040,-81.8810,-0.101,1111122 
COMPS,ioos:station:USF.COMPS:BGC:1,2011-04-01T13:30:00Z,26.4040,-81.8810,-0.084,1111122 
COMPS,ioos:station:USF.COMPS:BGC:1,2011-04-01T13:36:00Z,26.4040,-81.8810,-0.078,1111122 
COMPS,ioos:station:USF.COMPS:BGC:1,2011-04-01T13:42:00Z,26.4040,-81.8810,-0.068,1111122 
COMPS,ioos:station:USF.COMPS:BGC:1,2011-04-01T13:48:00Z,26.4040,-81.8810,-0.059,1111122 
COMPS,ioos:station:USF.COMPS:BGC:1,2011-04-01T13:54:00Z,26.4040,-81.8810,-0.048,1111122 
COMPS,ioos:station:USF.COMPS:BGC:1,2011-04-01T14:00:00Z,26.4040,-81.8810,-0.018,1111122 
COMPS,ioos:station:USF.COMPS:BGC:1,2011-04-01T14:06:00Z,26.4040,-81.8810,-0.012,1111122 
COMPS,ioos:station:USF.COMPS:BGC:1,2011-04-01T14:12:00Z,26.4040,-81.8810,-0.017,1111122 
COMPS,ioos:station:USF.COMPS:BGC:1,2011-04-01T14:18:00Z,26.4040,-81.8810,-0.011,1111122 
COMPS,ioos:station:USF.COMPS:BGC:1,2011-04-01T14:24:00Z,26.4040,-81.8810,0.005,1111122 
COMPS,ioos:station:USF.COMPS:BGC:1,2011-04-01T14:30:00Z,26.4040,-81.8810,0.009,1111122 
COMPS,ioos:station:USF.COMPS:BGC:1,2011-04-01T14:36:00Z,26.4040,-81.8810,0.023,1111122 
COMPS,ioos:station:USF.COMPS:BGC:1,2011-04-01T14:42:00Z,26.4040,-81.8810,0.041,1111122 
COMPS,ioos:station:USF.COMPS:BGC:1,2011-04-01T14:48:00Z,26.4040,-81.8810,0.045,1111122 
COMPS,ioos:station:USF.COMPS:BGC:1,2011-04-01T14:54:00Z,26.4040,-81.8810,0.051,1111122 
COMPS,ioos:station:USF.COMPS:BGC:1,2011-04-01T15:00:00Z,26.4040,-81.8810,0.069,1111122 
COMPS,ioos:station:USF.COMPS:BGC:1,2011-04-01T15:06:00Z,26.4040,-81.8810,0.069,1111122 
COMPS,ioos:station:USF.COMPS:BGC:1,2011-04-01T15:12:00Z,26.4040,-81.8810,0.077,1111122 
COMPS,ioos:station:USF.COMPS:BGC:1,2011-04-01T15:18:00Z,26.4040,-81.8810,0.084,1111122 
COMPS,ioos:station:USF.COMPS:BGC:1,2011-04-01T15:24:00Z,26.4040,-81.8810,0.095,1111122 
COMPS,ioos:station:USF.COMPS:BGC:1,2011-04-01T15:30:00Z,26.4040,-81.8810,0.097,1111122 
COMPS,ioos:station:USF.COMPS:BGC:1,2011-04-01T15:36:00Z,26.4040,-81.8810,0.107,1111122 
COMPS,ioos:station:USF.COMPS:BGC:1,2011-04-01T15:42:00Z,26.4040,-81.8810,0.107,1111122 
COMPS,ioos:station:USF.COMPS:BGC:1,2011-04-01T15:48:00Z,26.4040,-81.8810,0.113,1111122 
COMPS,ioos:station:USF.COMPS:BGC:1,2011-04-01T15:54:00Z,26.4040,-81.8810,0.111,1111122 
COMPS,ioos:station:USF.COMPS:BGC:1,2011-04-01T16:00:00Z,26.4040,-81.8810,0.128,1111122 
COMPS,ioos:station:USF.COMPS:BGC:1,2011-04-01T16:06:00Z,26.4040,-81.8810,0.129,1111122 
COMPS,ioos:station:USF.COMPS:BGC:1,2011-04-01T16:12:00Z,26.4040,-81.8810,0.12,1111122 
COMPS,ioos:station:USF.COMPS:BGC:1,2011-04-01T16:18:00Z,26.4040,-81.8810,0.125,1111122 
COMPS,ioos:station:USF.COMPS:BGC:1,2011-04-01T16:24:00Z,26.4040,-81.8810,0.124,1111122 
COMPS,ioos:station:USF.COMPS:BGC:1,2011-04-01T16:30:00Z,26.4040,-81.8810,0.124,1111122 
COMPS,ioos:station:USF.COMPS:BGC:1,2011-04-01T16:36:00Z,26.4040,-81.8810,0.126,1111122 
COMPS,ioos:station:USF.COMPS:BGC:1,2011-04-01T16:42:00Z,26.4040,-81.8810,0.117,1111122 
COMPS,ioos:station:USF.COMPS:BGC:1,2011-04-01T16:48:00Z,26.4040,-81.8810,0.106,1111122 
COMPS,ioos:station:USF.COMPS:BGC:1,2011-04-01T16:54:00Z,26.4040,-81.8810,0.098,1111122 
COMPS,ioos:station:USF.COMPS:BGC:1,2011-04-01T17:00:00Z,26.4040,-81.8810,0.106,1111122 
COMPS,ioos:station:USF.COMPS:BGC:1,2011-04-01T17:06:00Z,26.4040,-81.8810,0.086,1111122 
COMPS,ioos:station:USF.COMPS:BGC:1,2011-04-01T17:12:00Z,26.4040,-81.8810,0.076,1111122 
COMPS,ioos:station:USF.COMPS:BGC:1,2011-04-01T17:18:00Z,26.4040,-81.8810,0.069,1111122 
COMPS,ioos:station:USF.COMPS:BGC:1,2011-04-01T17:24:00Z,26.4040,-81.8810,0.063,1111122 
COMPS,ioos:station:USF.COMPS:BGC:1,2011-04-01T17:30:00Z,26.4040,-81.8810,0.074,1111122 
COMPS,ioos:station:USF.COMPS:BGC:1,2011-04-01T17:36:00Z,26.4040,-81.8810,0.064,1111122 
COMPS,ioos:station:USF.COMPS:BGC:1,2011-04-01T17:42:00Z,26.4040,-81.8810,0.049,1111122 
COMPS,ioos:station:USF.COMPS:BGC:1,2011-04-01T17:48:00Z,26.4040,-81.8810,0.05,1111122 
COMPS,ioos:station:USF.COMPS:BGC:1,2011-04-01T17:54:00Z,26.4040,-81.8810,0.04,1111122 
COMPS,ioos:station:USF.COMPS:BGC:1,2011-04-01T18:00:00Z,26.4040,-81.8810,0.022,1111122 
COMPS,ioos:station:USF.COMPS:BGC:1,2011-04-01T18:06:00Z,26.4040,-81.8810,0.015,1111122 
COMPS,ioos:station:USF.COMPS:BGC:1,2011-04-01T18:12:00Z,26.4040,-81.8810,0.011,1111122 
COMPS,ioos:station:USF.COMPS:BGC:1,2011-04-01T18:18:00Z,26.4040,-81.8810,-0.016,1111122 
COMPS,ioos:station:USF.COMPS:BGC:1,2011-04-01T18:24:00Z,26.4040,-81.8810,-0.026,1111122 
COMPS,ioos:station:USF.COMPS:BGC:1,2011-04-01T18:30:00Z,26.4040,-81.8810,-0.037,1111122 
COMPS,ioos:station:USF.COMPS:BGC:1,2011-04-01T18:36:00Z,26.4040,-81.8810,-0.044,1111122 
COMPS,ioos:station:USF.COMPS:BGC:1,2011-04-01T18:42:00Z,26.4040,-81.8810,-0.06,1111122 
COMPS,ioos:station:USF.COMPS:BGC:1,2011-04-01T18:48:00Z,26.4040,-81.8810,-0.067,1111122 
COMPS,ioos:station:USF.COMPS:BGC:1,2011-04-01T18:54:00Z,26.4040,-81.8810,-0.075,1111122 
COMPS,ioos:station:USF.COMPS:BGC:1,2011-04-01T19:00:00Z,26.4040,-81.8810,-0.09,1111122 
COMPS,ioos:station:USF.COMPS:BGC:1,2011-04-01T19:06:00Z,26.4040,-81.8810,-0.103,1111122 
COMPS,ioos:station:USF.COMPS:BGC:1,2011-04-01T19:12:00Z,26.4040,-81.8810,-0.112,1111122 
COMPS,ioos:station:USF.COMPS:BGC:1,2011-04-01T19:18:00Z,26.4040,-81.8810,-0.128,1111122 
COMPS,ioos:station:USF.COMPS:BGC:1,2011-04-01T19:24:00Z,26.4040,-81.8810,-0.149,1111122 
COMPS,ioos:station:USF.COMPS:BGC:1,2011-04-01T19:30:00Z,26.4040,-81.8810,-0.159,1111122 
COMPS,ioos:station:USF.COMPS:BGC:1,2011-04-01T19:36:00Z,26.4040,-81.8810,-0.163,1111122 
COMPS,ioos:station:USF.COMPS:BGC:1,2011-04-01T19:42:00Z,26.4040,-81.8810,-0.173,1111122 
COMPS,ioos:station:USF.COMPS:BGC:1,2011-04-01T19:48:00Z,26.4040,-81.8810,-0.193,1111122 
COMPS,ioos:station:USF.COMPS:BGC:1,2011-04-01T19:54:00Z,26.4040,-81.8810,-0.194,1111122 
COMPS,ioos:station:USF.COMPS:BGC:1,2011-04-01T20:00:00Z,26.4040,-81.8810,-0.22,1111122 
COMPS,ioos:station:USF.COMPS:BGC:1,2011-04-01T20:06:00Z,26.4040,-81.8810,-0.215,1111122 
COMPS,ioos:station:USF.COMPS:BGC:1,2011-04-01T20:12:00Z,26.4040,-81.8810,-0.234,1111122 
COMPS,ioos:station:USF.COMPS:BGC:1,2011-04-01T20:18:00Z,26.4040,-81.8810,-0.258,1111122 
COMPS,ioos:station:USF.COMPS:BGC:1,2011-04-01T20:24:00Z,26.4040,-81.8810,-0.264,1111122 
COMPS,ioos:station:USF.COMPS:BGC:1,2011-04-01T20:30:00Z,26.4040,-81.8810,-0.27,1111122 
COMPS,ioos:station:USF.COMPS:BGC:1,2011-04-01T20:36:00Z,26.4040,-81.8810,-0.281,1111122 
COMPS,ioos:station:USF.COMPS:BGC:1,2011-04-01T20:42:00Z,26.4040,-81.8810,-0.288,1111122 
COMPS,ioos:station:USF.COMPS:BGC:1,2011-04-01T20:48:00Z,26.4040,-81.8810,-0.307,1111122 
COMPS,ioos:station:USF.COMPS:BGC:1,2011-04-01T20:54:00Z,26.4040,-81.8810,-0.317,1111122 
COMPS,ioos:station:USF.COMPS:BGC:1,2011-04-01T21:00:00Z,26.4040,-81.8810,-0.333,1111122 
COMPS,ioos:station:USF.COMPS:BGC:1,2011-04-01T21:06:00Z,26.4040,-81.8810,-0.333,1111122 
COMPS,ioos:station:USF.COMPS:BGC:1,2011-04-01T21:12:00Z,26.4040,-81.8810,-0.342,1111122 
COMPS,ioos:station:USF.COMPS:BGC:1,2011-04-01T21:18:00Z,26.4040,-81.8810,-0.351,1111122 
COMPS,ioos:station:USF.COMPS:BGC:1,2011-04-01T21:24:00Z,26.4040,-81.8810,-0.366,1111122 
COMPS,ioos:station:USF.COMPS:BGC:1,2011-04-01T21:30:00Z,26.4040,-81.8810,-0.37,1111122 
COMPS,ioos:station:USF.COMPS:BGC:1,2011-04-01T21:36:00Z,26.4040,-81.8810,-0.384,1111122 
COMPS,ioos:station:USF.COMPS:BGC:1,2011-04-01T21:42:00Z,26.4040,-81.8810,-0.395,1111122 
COMPS,ioos:station:USF.COMPS:BGC:1,2011-04-01T21:48:00Z,26.4040,-81.8810,-0.405,1111122 
COMPS,ioos:station:USF.COMPS:BGC:1,2011-04-01T21:54:00Z,26.4040,-81.8810,-0.416,1111122 
COMPS,ioos:station:USF.COMPS:BGC:1,2011-04-01T22:00:00Z,26.4040,-81.8810,-0.419,1111122 
COMPS,ioos:station:USF.COMPS:BGC:1,2011-04-01T22:06:00Z,26.4040,-81.8810,-0.434,1111122 
COMPS,ioos:station:USF.COMPS:BGC:1,2011-04-01T22:12:00Z,26.4040,-81.8810,-0.445,1111122 
COMPS,ioos:station:USF.COMPS:BGC:1,2011-04-01T22:18:00Z,26.4040,-81.8810,-0.448,1111122 
COMPS,ioos:station:USF.COMPS:BGC:1,2011-04-01T22:24:00Z,26.4040,-81.8810,-0.457,1111122 
COMPS,ioos:station:USF.COMPS:BGC:1,2011-04-01T22:30:00Z,26.4040,-81.8810,-0.468,1111122 
COMPS,ioos:station:USF.COMPS:BGC:1,2011-04-01T22:36:00Z,26.4040,-81.8810,-0.471,1111122 
COMPS,ioos:station:USF.COMPS:BGC:1,2011-04-01T22:42:00Z,26.4040,-81.8810,-0.48,1111122 
COMPS,ioos:station:USF.COMPS:BGC:1,2011-04-01T22:48:00Z,26.4040,-81.8810,-0.481,1111122 
COMPS,ioos:station:USF.COMPS:BGC:1,2011-04-01T22:54:00Z,26.4040,-81.8810,-0.487,1111122 
COMPS,ioos:station:USF.COMPS:BGC:1,2011-04-01T23:00:00Z,26.4040,-81.8810,-0.49,1111122 
COMPS,ioos:station:USF.COMPS:BGC:1,2011-04-01T23:06:00Z,26.4040,-81.8810,-0.496,1111122 
COMPS,ioos:station:USF.COMPS:BGC:1,2011-04-01T23:12:00Z,26.4040,-81.8810,-0.5,1111122 
COMPS,ioos:station:USF.COMPS:BGC:1,2011-04-01T23:18:00Z,26.4040,-81.8810,-0.502,1111122 
COMPS,ioos:station:USF.COMPS:BGC:1,2011-04-01T23:24:00Z,26.4040,-81.8810,-0.509,1111122 
COMPS,ioos:station:USF.COMPS:BGC:1,2011-04-01T23:30:00Z,26.4040,-81.8810,-0.517,1111122 
COMPS,ioos:station:USF.COMPS:BGC:1,2011-04-01T23:36:00Z,26.4040,-81.8810,-0.514,1111122 
COMPS,ioos:station:USF.COMPS:BGC:1,2011-04-01T23:42:00Z,26.4040,-81.8810,-0.508,1111122 
COMPS,ioos:station:USF.COMPS:BGC:1,2011-04-01T23:48:00Z,26.4040,-81.8810,-0.503,1111122 
COMPS,ioos:station:USF.COMPS:BGC:1,2011-04-01T23:54:00Z,26.4040,-81.8810,-0.496,1111122 
COMPS,ioos:station:USF.COMPS:BGC:1,2011-04-02T00:00:00Z,26.4040,-81.8810,-0.48,1111122 
COMPS,ioos:station:USF.COMPS:BGC:1,2011-04-02T00:06:00Z,26.4040,-81.8810,-0.473,1111122 
COMPS,ioos:station:USF.COMPS:BGC:1,2011-04-02T00:12:00Z,26.4040,-81.8810,-0.467,1111122 
COMPS,ioos:station:USF.COMPS:BGC:1,2011-04-02T00:18:00Z,26.4040,-81.8810,-0.462,1111122 
COMPS,ioos:station:USF.COMPS:BGC:1,2011-04-02T00:24:00Z,26.4040,-81.8810,-0.455,1111122 
COMPS,ioos:station:USF.COMPS:BGC:1,2011-04-02T00:30:00Z,26.4040,-81.8810,-0.445,1111122 
COMPS,ioos:station:USF.COMPS:BGC:1,2011-04-02T00:36:00Z,26.4040,-81.8810,-0.438,1111122 
COMPS,ioos:station:USF.COMPS:BGC:1,2011-04-02T00:42:00Z,26.4040,-81.8810,-0.432,1111122 
COMPS,ioos:station:USF.COMPS:BGC:1,2011-04-02T00:48:00Z,26.4040,-81.8810,-0.419,1111122 
COMPS,ioos:station:USF.COMPS:BGC:1,2011-04-02T00:54:00Z,26.4040,-81.8810,-0.403,1111122 
COMPS,ioos:station:USF.COMPS:BGC:1,2011-04-02T01:00:00Z,26.4040,-81.8810,-0.395,1111122 
COMPS,ioos:station:USF.COMPS:BGC:1,2011-04-02T01:06:00Z,26.4040,-81.8810,-0.383,1111122 
COMPS,ioos:station:USF.COMPS:BGC:1,2011-04-02T01:12:00Z,26.4040,-81.8810,-0.372,1111122 
COMPS,ioos:station:USF.COMPS:BGC:1,2011-04-02T01:18:00Z,26.4040,-81.8810,-0.353,1111122 
COMPS,ioos:station:USF.COMPS:BGC:1,2011-04-02T01:24:00Z,26.4040,-81.8810,-0.336,1111122 
COMPS,ioos:station:USF.COMPS:BGC:1,2011-04-02T01:30:00Z,26.4040,-81.8810,-0.329,1111122 
COMPS,ioos:station:USF.COMPS:BGC:1,2011-04-02T01:36:00Z,26.4040,-81.8810,-0.316,1111122 
COMPS,ioos:station:USF.COMPS:BGC:1,2011-04-02T01:42:00Z,26.4040,-81.8810,-0.302,1111122 
COMPS,ioos:station:USF.COMPS:BGC:1,2011-04-02T01:48:00Z,26.4040,-81.8810,-0.288,1111122 
COMPS,ioos:station:USF.COMPS:BGC:1,2011-04-02T01:54:00Z,26.4040,-81.8810,-0.275,1111122 
COMPS,ioos:station:USF.COMPS:BGC:1,2011-04-02T02:00:00Z,26.4040,-81.8810,-0.26,1111122 
COMPS,ioos:station:USF.COMPS:BGC:1,2011-04-02T02:06:00Z,26.4040,-81.8810,-0.244,1111122 
COMPS,ioos:station:USF.COMPS:BGC:1,2011-04-02T02:12:00Z,26.4040,-81.8810,-0.227,1111122 
COMPS,ioos:station:USF.COMPS:BGC:1,2011-04-02T02:18:00Z,26.4040,-81.8810,-0.213,1111122 
COMPS,ioos:station:USF.COMPS:BGC:1,2011-04-02T02:24:00Z,26.4040,-81.8810,-0.198,1111122 
COMPS,ioos:station:USF.COMPS:BGC:1,2011-04-02T02:30:00Z,26.4040,-81.8810,-0.186,1111122 
COMPS,ioos:station:USF.COMPS:BGC:1,2011-04-02T02:36:00Z,26.4040,-81.8810,-0.171,1111122 
COMPS,ioos:station:USF.COMPS:BGC:1,2011-04-02T02:42:00Z,26.4040,-81.8810,-0.158,1111122 
COMPS,ioos:station:USF.COMPS:BGC:1,2011-04-02T02:48:00Z,26.4040,-81.8810,-0.145,1111122 
COMPS,ioos:station:USF.COMPS:BGC:1,2011-04-02T02:54:00Z,26.4040,-81.8810,-0.135,1111122 